Location: Newark
(45.8667°N, 9.7333°E)
Time: 04:48:44
(UTC+00:00)

A-11 Canister half - Pass Details

Date: 24 January 2020
Orbit: 1517 x 1683 km, 47.2° (Epoch: 16 February)

Event Time Altitude Azimuth Distance (km) Brightness Sun altitude
Rises 01:08:43 0° 257° (WSW) 4,706 - -57.0°
Reaches altitude 10° 01:11:47 10° 258° (WSW) 3,708 - -56.6°
Maximum altitude 01:21:09 87° 349° (N) 1,525 - -55.4°
Exits shadow 01:27:57 21° 79° (ENE) 2,900 10.7 -54.5°
Drops below altitude 10° 01:30:27 10° 80° (E) 3,686 11.3 -54.1°
Sets 01:33:30 0° 80° (E) 4,677 12.0 -53.7°
